GFSNE_700_temp_021.txt.gz
Temp
9 9 9 8 8 8 8 7 7 7 7 7 6 5 5 5 5 5 5 5 4 4 5 5 5 5 5 5 5 5 5 5 5 5 5 5 5 5
9 9 9 9 8 8 8 7 7 7 6 6 6 5 5 5 5 5 5 5 5 4 4 4 4 4 4 4 4 4 4 4 4 4 4 5 5 5
10 10 9 9 9 8 8 7 7 7 6 6 6 6 5 5 5 5 5 5 4 4 4 4 4 4 4 4 4 3 3 3 3 3 4 4 4 4
10 10 10 9 9 9 8 7 7 7 6 6 6 6 5 5 5 5 5 5 4 3 3 4 4 4 4 4 4 3 3 3 3 3 3 4 3 4
10 10 10 10 8 8 8 8 7 7 7 6 6 5 5 5 5 4 4 5 5 4 4 4 3 3 3 3 4 4 4 4 4 4 4 4 4 4
11 11 10 9 7 8 8 7 7 7 6 6 6 6 5 5 5 5 5 5 4 4 3 3 3 3 3 3 3 3 3 4 4 4 4 4 4 4
11 11 11 10 8 8 8 8 7 7 7 6 5 5 5 5 5 5 5 5 4 4 4 3 3 3 3 3 3 4 3 3 3 3 3 3 4 4
11 11 11 10 10 9 8 9 8 8 7 6 5 5 6 5 5 5 4 4 4 4 3 3 3 2 2 3 3 3 3 3 3 3 3 3 3 3
12 12 11 10 9 9 9 9 9 8 7 6 6 6 5 5 4 4 4 3 3 3 3 3 3 3 3 3 3 3 2 2 2 3 2 2 2 2
12 12 11 11 10 10 9 9 9 8 7 6 6 6 5 4 4 4 4 3 3 3 3 3 3 3 3 3 2 2 2 2 2 1 1 2 2 2
12 12 12 11 11 10 9 9 9 8 7 6 6 6 5 4 4 4 3 3 3 3 3 3 3 3 3 2 2 1 1 1 1 1 1 1 2 2
13 12 11 11 10 10 9 9 9 8 7 6 7 7 4 4 4 3 3 3 3 3 3 3 3 3 3 2 2 2 2 2 2 2 1 1 1 2
13 12 11 10 10 10 9 9 8 8 7 7 7 6 4 4 4 3 3 3 3 3 3 3 3 2 2 2 2 2 2 2 2 1 1 1 0 1
13 12 10 10 10 10 10 9 8 7 7 6 6 5 4 3 4 3 3 3 3 3 3 3 3 2 2 2 2 1 1 1 1 1 1 1 0 0
12 10 9 9 9 9 10 8 7 7 6 6 5 4 4 4 4 3 4 4 3 3 3 3 2 2 2 1 1 1 1 1 1 0 0 0 0 0
10 8 8 8 6 10 9 8 7 7 6 5 5 4 4 4 3 3 3 3 2 3 3 3 2 2 1 1 1 1 1 1 0 -0 -0 -0 -0 -1
9 7 6 5 6 8 8 7 6 6 5 4 5 4 4 3 3 3 3 3 3 3 2 2 2 2 1 1 0 0 0 0 -0 -1 -1 -0 -0 -1
7 6 5 6 6 7 6 6 6 5 5 5 4 4 3 3 3 3 3 3 3 3 3 2 1 1 1 1 1 0 0 -0 -0 -1 -1 -0 -0 -1
7 6 6 7 7 6 6 5 5 5 4 5 4 3 3 3 2 3 4 3 3 3 3 2 1 1 1 1 0 0 -0 -0 -0 -0 -1 -1 -1 -1
9 7 8 7 6 6 6 5 5 5 4 4 4 3 3 3 2 3 3 3 3 3 2 2 1 1 1 1 0 -0 -0 -0 -1 -1 -1 -1 -1 -1
8 6 7 6 6 5 5 4 4 4 4 4 4 3 3 3 3 3 3 3 3 3 2 1 1 1 1 1 0 0 -0 -1 -1 -1 -1 -1 -2 -2
5 5 6 5 5 5 5 4 4 4 4 4 4 4 3 3 3 3 2 3 3 3 2 1 0 1 1 1 0 0 -0 -1 -1 -2 -2 -2 -3 -3
4 5 5 4 5 4 3 4 4 4 4 4 4 4 3 3 3 3 2 3 3 3 1 0 0 0 1 0 0 -0 -0 -1 -1 -1 -2 -2 -3 -3

GFSNE_700_temp_024.txt.gz
Temp
10 10 10 9 9 9 9 9 8 7 5 7 7 7 7 7 7 6 6 5 5 5 5 5 5 4 4 4 5 5 5 5 4 5 5 6 6 5
10 10 10 10 10 9 8 8 8 8 7 7 7 7 6 6 6 6 5 5 5 5 4 4 4 4 4 5 5 4 4 4 4 4 4 4 5 5
11 11 10 9 9 9 9 8 8 8 7 7 6 6 6 6 6 6 6 5 5 5 4 4 5 4 4 4 4 4 4 4 4 4 4 4 4 4
11 11 10 10 9 9 9 8 8 8 8 8 7 7 6 6 6 6 6 5 5 4 5 4 4 4 5 5 4 4 4 4 4 4 4 4 4 4
11 11 11 10 10 10 9 9 8 8 8 8 8 7 6 6 6 5 5 5 5 5 5 5 5 4 4 4 4 4 3 4 4 3 4 4 4 4
11 11 11 11 10 10 9 9 8 8 8 8 7 6 6 6 6 5 5 4 5 5 4 4 4 4 4 4 4 4 3 3 4 4 3 3 4 4
11 11 12 11 10 9 9 9 8 8 8 8 7 7 6 6 6 6 5 5 4 5 5 4 4 4 4 4 4 4 4 4 3 3 3 4 3 3
12 12 12 12 11 11 10 10 9 8 8 8 8 7 6 6 6 5 5 5 5 3 4 4 4 4 4 1 2 3 3 3 3 3 3 3 3 3
12 12 12 12 11 11 11 10 9 9 8 8 8 7 6 6 5 5 5 5 5 4 4 4 4 4 4 3 4 3 3 3 3 3 3 3 2 2
12 12 12 11 11 11 11 10 10 10 9 8 8 7 7 6 5 5 5 5 5 5 4 4 4 4 4 3 4 4 3 3 3 3 2 2 2 2
12 12 12 12 12 11 11 11 10 9 9 8 8 7 6 6 6 5 5 5 4 4 4 4 4 4 4 3 3 4 3 3 3 3 2 2 2 2
13 13 13 12 12 11 11 10 10 9 9 9 8 7 6 6 6 6 4 4 4 4 4 4 3 3 3 3 3 3 3 3 3 2 2 2 2 1
13 13 13 13 12 11 10 9 9 9 8 7 8 8 6 6 6 6 4 4 4 4 5 4 4 4 3 3 3 3 3 3 2 2 1 2 1 1
14 13 13 13 12 10 10 10 9 7 8 7 7 7 7 7 6 6 4 5 4 4 4 4 4 4 3 3 3 3 3 2 2 1 1 0 0 0
13 13 13 12 11 11 10 9 8 7 7 8 7 6 7 6 6 5 5 5 4 4 5 4 5 4 3 3 3 3 2 2 1 1 1 0 -0 -1
13 13 13 11 11 11 10 8 9 5 5 6 6 6 6 6 6 5 5 5 4 4 6 4 4 4 3 3 3 3 3 2 1 -0 0 -0 -0 -0
13 12 11 11 10 10 8 8 9 7 6 6 5 6 6 6 6 5 4 4 4 4 4 5 5 4 4 3 3 3 2 2 1 0 -0 0 -0 -0
11 11 10 9 9 8 8 7 6 5 6 5 5 5 5 5 5 5 4 4 4 3 4 4 5 4 4 3 3 3 2 2 1 0 0 0 0 -0
12 11 11 9 8 8 6 7 6 6 5 4 5 5 5 5 5 4 4 4 3 3 4 4 4 4 3 3 2 2 2 1 1 1 0 -0 -0 0
12 11 12 10 9 9 9 8 5 5 5 4 4 4 5 5 5 4 4 4 3 3 3 4 4 4 3 3 2 2 2 2 0 -0 -0 -0 -0 -0
13 12 12 11 9 9 8 7 6 5 5 5 4 4 4 4 4 3 4 3 3 3 3 3 4 3 3 3 2 2 1 1 0 -0 -1 -1 -1 -1
11 12 11 10 8 7 7 6 6 5 5 4 4 4 4 4 3 4 4 4 3 3 3 3 3 3 3 2 2 2 1 1 0 -0 -1 -1 -2 -2
9 8 8 8 6 6 6 7 6 4 4 4 4 4 4 3 3 3 3 3 3 3 3 3 3 2 3 2 2 2 1 1 0 -0 -1 -1 -2 -2

GFSNE_700_temp_030.txt.gz
Temp
11 11 10 10 10 10 9 9 8 8 7 6 6 8 7 8 7 7 7 7 6 6 6 6 6 5 6 6 5 6 6 6 5 6 5 5 6 5
11 11 11 11 11 10 10 10 9 8 8 8 8 9 7 8 8 7 7 7 6 6 6 6 5 5 5 5 5 5 5 5 5 5 5 5 5 5
12 12 11 11 11 11 10 10 10 9 9 8 8 9 8 8 8 8 7 7 6 6 7 6 5 5 5 5 5 5 5 5 5 5 4 4 4 4
12 12 12 11 11 11 11 11 10 10 10 9 8 9 9 8 8 8 7 7 7 8 6 6 5 5 5 5 5 5 5 5 5 4 5 4 4 4
12 12 12 12 11 11 11 11 11 10 10 10 9 9 9 9 9 9 8 7 6 6 6 5 5 5 5 5 5 6 6 5 5 5 5 4 4 4
12 12 12 12 12 11 11 11 11 11 10 10 10 9 9 9 9 9 9 8 7 6 6 5 5 5 6 6 5 6 6 6 6 5 5 5 5 5
13 13 13 13 12 12 12 12 11 11 11 11 11 10 9 8 9 9 8 8 7 6 5 5 5 4 5 6 6 6 5 5 5 5 5 5 5 5
14 13 13 13 13 13 12 12 11 11 11 11 11 11 10 9 9 8 8 7 7 7 6 6 5 5 5 4 5 5 5 5 5 5 5 4 4 4
14 14 14 14 14 14 13 13 12 12 12 12 11 11 10 10 9 9 8 7 7 7 6 6 6 6 5 6 5 6 6 5 5 5 5 4 4 4
15 15 15 14 14 14 13 13 13 12 12 12 12 10 9 9 9 9 9 8 8 8 7 7 5 6 6 6 6 6 6 5 5 5 4 4 4 4
15 15 15 15 15 14 14 14 13 13 12 12 11 11 11 9 9 9 9 9 9 9 8 8 7 6 6 6 6 6 6 6 5 5 5 5 4 4
15 16 16 16 15 14 15 14 14 13 12 12 11 11 10 10 9 9 8 8 8 8 8 8 8 7 6 6 6 6 6 6 6 6 5 5 4 4
15 15 15 15 15 15 14 14 14 13 13 11 11 10 10 10 10 9 8 7 7 6 7 7 6 6 6 6 5 5 6 6 6 6 5 4 4 4
15 15 14 14 14 14 14 14 13 13 13 12 11 10 9 9 9 9 8 7 6 5 5 6 5 5 5 6 5 5 6 6 6 5 5 5 4 4
16 16 14 14 14 13 13 13 13 12 11 11 11 11 10 9 8 8 7 7 5 5 4 5 5 5 6 6 5 5 5 5 6 5 5 4 4 4
16 15 15 13 13 13 13 14 13 13 13 13 11 12 9 9 9 7 7 6 4 5 4 5 5 5 5 6 5 5 5 5 5 5 5 4 4 3
16 15 15 15 14 13 13 13 13 13 14 13 12 10 9 8 8 7 6 6 5 5 4 6 5 5 5 5 5 5 5 5 5 5 5 4 3 3
15 16 16 16 16 15 15 14 12 11 11 11 10 9 8 8 8 6 6 5 4 5 5 6 6 6 5 5 5 5 5 5 5 4 4 4 3 3
15 15 15 15 15 14 13 13 11 10 9 9 9 9 7 8 6 6 7 4 4 5 4 6 6 6 6 5 5 5 5 5 5 4 4 3 3 3
14 14 14 14 13 12 11 10 9 8 9 9 10 9 8 8 5 6 5 4 4 4 4 5 5 6 5 5 5 5 5 5 4 3 3 3 3 2
14 14 14 14 10 10 8 9 8 9 8 9 9 9 6 7 9 6 6 5 4 4 5 5 5 5 4 5 4 4 4 4 3 4 4 3 3 3
13 14 13 12 10 9 8 7 8 9 9 9 8 7 6 6 6 5 5 4 5 5 5 4 5 5 5 5 4 4 4 4 4 4 3 3 3 3
12 11 11 10 7 6 6 7 6 7 7 6 6 2 5 6 5 4 4 5 4 4 4 5 5 5 5 4 4 4 4 4 3 3 3 3 2 2

GFSNE_700_temp_033.txt.gz
Temp
11 11 10 10 10 10 9 10 9 9 9 9 9 8 8 8 8 7 7 7 7 6 6 6 6 6 6 5 5 5 5 6 6 6 5 5 5 5
11 11 11 11 11 10 10 10 10 9 9 9 9 9 9 9 8 8 8 8 7 7 7 6 6 6 5 5 5 5 5 5 5 5 5 5 5 5
11 11 11 11 11 11 11 10 10 10 10 10 10 9 10 9 9 9 9 9 8 8 7 7 6 6 6 5 5 5 5 5 5 5 5 5 5 4
12 12 11 11 11 11 11 11 11 11 10 10 10 10 10 10 10 9 9 9 8 8 8 8 7 6 5 5 5 5 5 5 6 6 5 5 6 5
12 12 12 12 11 11 11 11 11 11 11 11 10 10 10 10 10 9 9 9 9 9 8 8 8 7 6 5 5 6 6 5 5 5 5 5 5 5
13 13 13 13 12 12 12 11 11 11 11 11 11 11 11 10 10 10 9 9 9 9 9 9 8 8 8 7 6 6 7 6 6 6 6 5 5 5
13 14 14 14 14 13 12 12 12 12 11 11 11 11 11 10 10 10 10 10 10 8 8 8 8 8 7 7 6 6 7 6 6 5 4 4 4 4
14 13 14 14 14 14 13 12 12 12 12 12 12 12 11 10 10 11 10 10 10 8 7 7 7 8 7 7 6 6 7 6 6 5 4 4 4 4
14 13 13 14 14 14 14 13 13 12 12 12 12 12 11 11 10 10 10 10 9 8 7 7 6 7 8 7 6 6 6 6 5 5 5 5 4 4
14 14 14 14 14 14 14 14 14 13 13 12 12 11 11 10 10 10 9 9 9 9 8 7 6 6 6 7 6 6 7 6 6 6 5 5 5 4
15 15 15 14 14 13 14 14 13 14 13 13 12 11 11 10 10 9 9 9 8 9 8 8 6 5 6 6 6 7 7 6 6 6 5 5 5 5
15 15 15 15 15 14 13 13 14 14 13 13 12 12 11 11 10 9 8 8 8 8 8 7 6 4 5 5 6 6 7 7 7 6 5 5 5 5
16 16 16 16 15 15 15 14 14 13 13 12 12 12 11 11 10 10 10 10 8 8 8 6 6 5 6 6 6 6 7 7 6 6 5 5 5 5
16 16 16 15 15 15 15 15 14 14 14 14 14 13 13 13 11 10 10 9 8 7 6 6 5 5 5 5 5 6 6 6 6 5 5 5 5 5
17 16 16 16 16 15 15 15 15 14 14 14 14 14 14 13 11 9 9 9 8 7 7 6 4 5 5 4 4 5 5 6 6 5 5 5 4 5
16 16 15 15 15 15 15 15 15 15 14 14 14 14 12 13 11 9 9 8 7 6 6 5 4 4 5 6 5 5 5 6 5 5 5 5 4 4
16 16 15 15 15 15 15 15 15 14 13 13 10 10 10 10 10 9 9 8 7 6 6 5 5 4 5 5 5 5 5 5 5 5 5 4 4 4
15 15 15 15 15 15 15 14 13 12 10 9 9 10 8 9 9 8 9 9 7 7 5 4 4 4 5 5 5 5 5 5 5 5 4 4 4 4
15 15 15 15 15 15 14 14 13 12 12 9 9 9 9 8 8 9 9 9 8 7 4 4 4 5 5 5 4 5 5 5 4 4 5 4 4 3
14 14 14 14 14 13 13 12 12 11 10 10 9 9 8 8 8 9 8 8 8 7 7 5 5 5 5 5 4 5 5 4 4 4 4 4 3 3
14 14 14 13 13 12 12 12 10 10 9 9 8 7 9 9 9 8 9 8 5 5 6 7 6 4 4 5 5 5 4 4 4 4 4 3 3 3
12 12 12 12 12 11 11 10 10 10 10 11 10 8 7 8 7 6 7 4 3 4 4 5 4 4 5 5 5 4 4 4 4 3 3 3 3 3
11 11 11 11 11 10 9 8 8 6 6 5 5 6 6 4 4 4 4 4 3 3 4 4 3 4 4 4 4 4 3 4 3 3 3 3 3 3